Location: *
(46.1200°N, 11.2700°E)
Time: 12:32:25
(UTC+00:00)

HJ-1C - Pass Details

Date: 02 March 2021
Orbit: 428 x 440 km, 97.1° (Epoch: 18 April)

Event Time Altitude Azimuth Distance (km) Brightness Sun altitude
Rises 17:37:31 0° 147° (SSE) 2,417 6.8 -6.8°
Reaches altitude 10° 17:39:39 10° 137° (SE) 1,551 5.7 -7.2°
Maximum altitude 17:42:40 34° 72° (ENE) 752 4.0 -7.7°
Drops below altitude 10° 17:45:43 10° 6° (N) 1,557 6.1 -8.2°
Sets 17:47:51 0° 357° (N) 2,429 7.2 -8.6°
